Location: Lawrence Hall of Science
(37.8785°N, 122.2415°W)
Time: 08:20:32
(UTC-07:00)

Cosmos 1461 - Visible Passes

Search period start: 24 July 2014 00:00
Search period end: 03 August 2014 00:00
Orbit: 536 x 668 km, 65.0° (Epoch: 23 July)

Date Brightness Start Highest point End Pass type
(mag) Time Alt. Az. Time Alt. Az. Time Alt. Az.
24 Jul 5.0 02:33:15 22° ENE 02:33:15 22° ENE 02:35:09 10° NE visible
24 Jul 4.4 04:10:01 22° WNW 04:10:57 24° NW 04:14:20 10° N visible
25 Jul 4.4 02:44:46 34° NE 02:44:46 34° NE 02:47:15 10° NE visible
25 Jul 5.1 04:21:32 12° WNW 04:22:59 14° NW 04:25:09 10° NNW visible
26 Jul 4.1 02:56:14 40° N 02:56:14 40° N 02:59:01 10° NNE visible
27 Jul 4.4 03:07:39 30° NNW 03:07:39 30° NNW 03:10:30 10° NNE visible
28 Jul 5.6 01:42:17 14° NE 01:42:17 14° NE 01:42:59 10° NE visible
28 Jul 5.0 03:19:02 19° NW 03:19:02 19° NW 03:21:39 10° N visible
29 Jul 5.3 01:53:38 20° NNE 01:53:38 20° NNE 01:54:55 10° NNE visible
29 Jul 5.5 03:30:23 11° NW 03:30:46 11° NW 03:31:51 10° NNW visible
30 Jul 5.2 02:04:57 22° N 02:04:57 22° N 02:06:34 10° NNE visible
31 Jul 5.3 02:16:13 19° NNW 02:16:13 19° NNW 02:17:55 10° N visible
01 Aug 5.9 00:50:42 10° NE 00:50:42 10° NE 00:50:42 10° NE visible
01 Aug 5.6 02:27:27 14° NNW 02:27:27 14° NNW 02:28:50 10° N visible
02 Aug 5.7 01:01:54 14° NNE 01:01:54 14° NNE 01:02:30 10° NNE visible
